Molokai, HI

2:04 PM HST on October 20, 2017 (GMT -1000)
Molokai

Weather History for PHMK - February, 2012

Change the Weather History Date:

Thursday, February 9, 2012

  Actual Average Record
Temperature  
Mean Temperature 70 °F -  
Max Temperature 75 °F 78 °F 89 °F (1980)
Min Temperature 64 °F 62 °F 54 °F (1981)
Cooling Degree Days 4    
Growing Degree Days 20 (Base 50)    
Moisture  
Dew Point 55 °F    
Average Humidity 60    
Maximum Humidity 70    
Minimum Humidity 48    
Precipitation  
Precipitation 0.00 in - - ()
Sea Level Pressure  
Sea Level Pressure 30.20 in    
Wind  
Wind Speed 10 mph (NNE)    
Max Wind Speed 17 mph    
Max Gust Speed 26 mph    
Visibility 10 miles    
Events      
Averages and records for this station are not official NWS values.
T = Trace of Precipitation, MM = Missing Value Source: NWS Daily Summary

Daily Weather History Graph

Daily Weather History Graph

Search for Another Location

Airport or City:

Trip Planner

Search our weather history database for the weather conditions in past years. The results will help you decide how hot, cold, wet, or windy it might be!

Date:

Astronomy

Feb. 09, 2012 Rise Set
Actual Time 7:02 AM HST 6:23 PM HST
Civil Twilight 6:39 AM HST 6:46 PM HST
Nautical Twilight 6:12 AM HST 7:12 PM HST
Astronomical Twilight 5:46 AM HST 7:38 PM HST
Moon 8:35 PM HST (2/9) 8:08 AM HST (2/9)
Length of Visible Light 12h 06m
Length of Day
11h 21m
Waning Gibbous, 95% of the Moon is Illuminated
Feb 9
Waning Gibbous
Feb 14
Last Quarter
Feb 21
New
Feb 29
First Quarter
Mar 7
Full

Hourly Weather History & Observations

Time (HST) Temp. Dew Point Humidity Pressure Visibility Wind Dir Wind Speed Gust Speed Precip Events Conditions
12:54 AM 66.0 °F 55.0 °F 68% 30.16 in 10.0 mi NNE 9.2 mph - N/A   Partly Cloudy
1:54 AM 66.0 °F 53.1 °F 63% 30.17 in 10.0 mi NNE 6.9 mph - N/A   Partly Cloudy
2:54 AM 66.0 °F 55.9 °F 70% 30.16 in 10.0 mi NNE 10.4 mph - N/A   Partly Cloudy
3:54 AM 64.9 °F 54.0 °F 68% 30.15 in 10.0 mi NE 8.1 mph - N/A   Mostly Cloudy
4:54 AM 64.0 °F 53.1 °F 67% 30.17 in 10.0 mi NNE 5.8 mph - N/A   Clear
5:54 AM 64.9 °F 54.0 °F 68% 30.17 in 10.0 mi NNE 6.9 mph - N/A   Clear
6:54 AM 64.9 °F 55.0 °F 70% 30.19 in 10.0 mi NNE 10.4 mph - N/A   Clear
7:54 AM 66.9 °F 55.0 °F 66% 30.22 in 10.0 mi NNE 9.2 mph 19.6 mph N/A   Partly Cloudy
8:54 AM 70.0 °F 55.0 °F 59% 30.25 in 10.0 mi NNE 11.5 mph 23.0 mph N/A   Scattered Clouds
9:54 AM 72.0 °F 53.1 °F 51% 30.25 in 10.0 mi NE 13.8 mph 21.9 mph N/A   Scattered Clouds
10:54 AM 73.0 °F 53.1 °F 49% 30.23 in 10.0 mi NE 13.8 mph 24.2 mph N/A   Partly Cloudy
11:54 AM 73.0 °F 53.1 °F 49% 30.21 in 10.0 mi NNE 15.0 mph 24.2 mph N/A   Scattered Clouds
12:54 PM 73.9 °F 53.1 °F 48% 30.17 in 10.0 mi NE 12.7 mph 23.0 mph N/A   Mostly Cloudy
1:54 PM 75.0 °F 54.0 °F 48% 30.15 in 10.0 mi NNE 13.8 mph 21.9 mph N/A   Mostly Cloudy
2:54 PM 73.0 °F 54.0 °F 51% 30.14 in 10.0 mi NNE 11.5 mph 21.9 mph N/A   Clear
3:54 PM 73.9 °F 53.1 °F 48% 30.14 in 10.0 mi North 12.7 mph 23.0 mph N/A   Clear
4:54 PM 73.9 °F 54.0 °F 50% 30.15 in 10.0 mi NNE 10.4 mph - N/A   Clear
5:54 PM 71.1 °F 54.0 °F 55% 30.17 in 10.0 mi NE 8.1 mph 19.6 mph N/A   Clear
6:54 PM 69.1 °F 55.9 °F 63% 30.17 in 10.0 mi NE 11.5 mph 18.4 mph N/A   Clear
7:54 PM 69.1 °F 57.0 °F 65% 30.23 in 10.0 mi NNE 9.2 mph 20.7 mph N/A   Clear
8:54 PM 70.0 °F 57.0 °F 63% 30.27 in 10.0 mi NNE 17.3 mph 26.5 mph N/A   Overcast
9:54 PM 70.0 °F 57.0 °F 63% 30.30 in 10.0 mi NE 15.0 mph 24.2 mph N/A   Overcast
10:54 PM 69.1 °F 57.0 °F 65% 30.30 in 10.0 mi NNE 11.5 mph 23.0 mph N/A   Mostly Cloudy
11:54 PM 69.1 °F 57.0 °F 65% 30.29 in 10.0 mi NE 13.8 mph 23.0 mph N/A   Overcast